[[{"header":{"parameterUnit":"m.s-1","parameterCategory":1,"la1":30.2991,"la2":30.254,"lo1":-89.0895,"lo2":-89.0444,"dy":0.0017,"dx":0.0017,"nx":28,"ny":28,"refTime":"2025-01-15T03:00:00:Z","depth":0,"parameterNumber":2,"parameterNumberName":"U-component_of_WINDS"},"data":[0,0,0,0,0,0,0,0,0,0,0,0,0,0,0,0,0,0,0,0,0,0,0,0,0,0,0,0,0,0,0,0,0,0,0,0,0,0,0,0,0,0,0,0,0,0,0,0,0,0,0,0,0,0,0,0,0,0,-1.3896,-1.3897,0,-1.3936,-1.3937,-1.3937,-1.3888,-1.3886,-1.3884,-1.3883,-1.3926,-1.3929,-1.3931,0,0,0,0,0,0,0,0,0,0,0,0,0,-1.3777,-1.378,-1.3896,-1.3897,-1.3897,-1.3936,-1.3937,-1.3937,-1.3888,-1.3886,-1.3884,-1.3882,-1.3925,-1.3928,-1.3932,0,0,0,0,0,0,0,0,0,0,0,0,0,-1.3825,-1.3781,-1.3896,-1.3877,-1.3876,-1.3936,-1.3937,-1.3938,-1.3889,-1.3886,-1.3883,-1.3881,-1.3924,-1.3928,-1.3932,-1.4013,0,0,-1.3945,-1.3947,0,0,0,0,0,0,0,0,-1.3822,-1.3829,-1.388,-1.3879,-1.3877,-1.3904,-1.3911,-1.3963,-1.3889,-1.3884,-1.3883,-1.3879,-1.3921,-1.3925,-1.3939,-1.4015,-1.4017,-1.3946,-1.3948,-1.395,-1.3951,0,0,0,0,0,0,0,-1.3819,-1.3827,-1.3912,-1.388,-1.3879,-1.3867,-1.3871,-1.392,-1.3917,-1.3884,-1.3881,-1.3886,-1.392,-1.3935,-1.394,-1.4018,-1.3945,-1.3949,-1.3952,-1.3953,-1.4162,-1.4165,0,0,0,0,0,0,-1.3818,-1.3825,-1.3911,-1.3913,-1.3842,-1.3871,-1.3876,-1.3898,-1.3917,-1.3917,-1.3888,-1.3884,-1.3929,-1.3935,-1.3941,-1.4038,-1.395,-1.3954,-1.3956,-1.4159,-1.4163,-1.4166,0,0,0,0,0,0,-1.3815,-1.3826,-1.3909,-1.3868,-1.3878,-1.3876,-1.3903,-1.3901,-1.3916,-1.392,-1.3919,-1.3904,-1.3927,-1.3935,-1.3995,-1.4038,-1.3956,-1.396,-1.4156,-1.4161,-1.4165,-1.4231,0,0,0,0,0,0,-1.3812,-1.3825,-1.3856,-1.3869,-1.388,-1.3963,-1.3905,-1.3903,-1.3923,-1.3917,-1.3935,-1.3935,-1.3925,-1.3989,-1.4,-1.4043,-1.3963,-1.4152,-1.4158,-1.4163,-1.4225,-1.4238,-1.4248,0,0,0,0,0,-1.3808,-1.3874,-1.3858,-1.3868,-1.3919,-1.3966,-1.3972,-1.3959,-1.3927,-1.3958,-1.396,-1.3934,-1.4031,-1.3996,-1.4007,-1.4052,-1.4149,-1.4156,-1.4163,-1.422,-1.4235,-1.4248,0,0,0,0,0,0,-1.3867,-1.3875,-1.3858,-1.3929,-1.3947,-1.3957,-1.3996,-1.3976,-1.4004,-1.3997,-1.398,-1.3985,-1.4049,-1.4056,-1.4017,-1.4131,-1.4085,-1.4094,-1.4125,-1.4139,-1.415,-1.4148,-1.3967,0,0,0,0,0,-1.3888,-1.3925,-1.393,-1.3993,-1.4003,-1.3998,-1.4018,-1.4007,-1.4025,-1.4032,-1.4039,-1.4058,-1.4092,-1.4116,-1.4148,-1.4225,-1.4229,-1.4262,-1.4273,-1.4282,-1.4291,-1.4333,-1.4348,-1.4188,-1.4188,-1.4188,0,0,-1.3932,-1.3941,-1.3966,-1.4005,-1.4018,-1.4057,-1.4005,-1.4049,-1.4078,-1.4039,-1.4097,-1.4102,-1.4122,-1.4191,-1.4222,-1.4199,-1.4335,-1.4291,-1.4298,-1.4302,-1.4341,-1.4356,-1.437,-1.4193,-1.4192,-1.4191,0,0,-1.4034,-1.4044,-1.4098,-1.4111,-1.413,-1.4126,-1.4138,-1.4151,-1.4154,-1.4211,-1.4182,-1.4216,-1.4276,-1.4292,-1.4308,-1.4413,-1.4391,-1.4424,-1.4484,-1.4524,-1.4537,-1.4548,-1.4587,-1.4601,-1.4432,-1.4432,-1.4432,0,-1.4087,-1.4145,-1.4128,-1.4174,-1.4192,-1.4157,-1.4211,-1.4225,-1.4254,-1.4267,-1.424,-1.4315,-1.4325,-1.4398,-1.4424,-1.4437,-1.4452,-1.4423,-1.4536,-1.4547,-1.4557,-1.4594,-1.4609,-1.4436,-1.4436,-1.4435,-1.4435,0,-1.421,-1.425,-1.4291,-1.4319,-1.4341,-1.4391,-1.4382,-1.4407,-1.4393,-1.4392,-1.4451,-1.4462,-1.4496,-1.4511,-1.4499,-1.4582,-1.4567,-1.4539,-1.4492,-1.4577,-1.4611,-1.4625,-1.4442,-1.4441,-1.4439,-1.4438,0,0,-1.4352,-1.4368,-1.4384,-1.4396,-1.4413,-1.4445,-1.4492,-1.4525,-1.4547,-1.4567,-1.4607,-1.4658,-1.4631,-1.4649,-1.4637,-1.4673,-1.4756,-1.464,-1.464,-1.4662,-1.485,-1.4873,-1.4889,-1.474,-1.4743,-1.4745,-1.4849,0,-1.4454,-1.4537,-1.4523,-1.4603,-1.4641,-1.4607,-1.4649,-1.4664,-1.4664,-1.4696,-1.4695,-1.4732,-1.4693,-1.4704,-1.4737,-1.4739,-1.4794,-1.4731,-1.4779,-1.4781,-1.4777,-1.4907,-1.4931,-1.5029,-1.4862,-1.4864,-1.4866,0,-1.4586,-1.461,-1.4695,-1.4706,-1.4721,-1.4759,-1.4787,-1.4817,-1.4833,-1.4831,-1.485,-1.4831,-1.4879,-1.4829,-1.4896,-1.4853,-1.4871,-1.4875,-1.4878,-1.4884,-1.483,-1.4917,-1.5059,-1.5075,-1.4886,-1.4885,-1.4883,0,-1.4682,-1.4736,-1.4794,-1.4805,-1.4819,-1.4846,-1.4853,-1.4867,-1.4887,-1.4911,-1.4924,-1.4954,-1.4971,-1.4994,-1.4984,-1.4949,-1.5052,-1.5002,-1.5052,-1.5052,-1.5077,-1.5076,-1.5226,-1.5086,-1.5086,-1.5085,-1.5085,0,-1.48,-1.4853,-1.4837,-1.4873,-1.4932,-1.4914,-1.4972,-1.4975,-1.4987,-1.5023,-1.4995,-1.5029,-1.5012,-1.5045,-1.5037,-1.5094,-1.5101,-1.5101,-1.5098,-1.5104,-1.5105,-1.5118,-1.5111,-1.5089,-1.5088,-1.5088,-1.5087,0,-1.4919,-1.491,-1.4971,-1.4978,-1.4981,-1.5024,-1.5031,-1.5064,-1.5061,-1.5106,-1.5116,-1.5111,-1.5148,-1.514,-1.518,-1.5175,-1.5246,-1.5234,-1.5241,-1.5239,-1.529,-1.5286,-1.5454,-1.5476,-1.5321,-1.5322,-1.5323,0,-1.4995,-1.5035,-1.5047,-1.5068,-1.5077,-1.5112,-1.5132,-1.5116,-1.5138,-1.5159,-1.519,-1.5224,-1.5251,-1.5312,-1.5312,-1.5343,-1.5333,-1.539,-1.5338,-1.5342,-1.5336,-1.5334,-1.5338,-1.5401,-1.5403,-1.5404,-1.5405,0,-1.5132,-1.5125,-1.5155,-1.5183,-1.5208,-1.5229,-1.5248,-1.5267,-1.5252,-1.5278,-1.5315,-1.5336,-1.5377,-1.5412,-1.544,-1.5447,-1.5425,-1.5421,-1.5435,-1.5443,-1.5445,-1.5446,-1.5271,-1.5418,-1.5417,-1.5416,-1.5415,-1.5415,-1.5233,-1.5267,-1.528,-1.5314,-1.5326,-1.5344,-1.5376,-1.5376,-1.5406,-1.5438,-1.5426,-1.5469,-1.5483,-1.5519,-1.5529,-1.5563,-1.5541,-1.5561,-1.5566,-1.5571,-1.5578,-1.5438,-1.5568,-1.5567,-1.5567,-1.5566,-1.5566,0,-1.537,-1.5376,-1.5407,-1.5434,-1.5461,-1.5435,-1.5454,-1.5478,-1.5516,-1.5531,-1.5558,-1.56,-1.5633,-1.5636,-1.5667,-1.5693,-1.5683,-1.5702,-1.5701,-1.5703,-1.5595,-1.5581,-1.5709,-1.5709,-1.5709,-1.5709,-1.5709,-1.5709,-1.5444,-1.55,-1.5495,-1.5557,-1.5563,-1.5604,-1.5618,-1.5634,-1.5646,-1.5695,-1.5722,-1.5722,-1.5732,-1.5764,-1.5793,-1.5793,-1.5806,-1.5829,-1.5825,-1.5725,-1.5711,-1.5697,-1.5684,-1.5832,-1.5832,-1.5931,-1.5932,-1.5932]},{"header":{"parameterUnit":"m.s-1","parameterCategory":1,"la1":30.2991,"la2":30.254,"lo1":-89.0895,"lo2":-89.0444,"dy":0.0017,"dx":0.0017,"nx":28,"ny":28,"refTime":"2025-01-15T03:00:00:Z","depth":0,"parameterNumber":3,"parameterNumberName":"V-component_of_WINDS"},"data":[0,0,0,0,0,0,0,0,0,0,0,0,0,0,0,0,0,0,0,0,0,0,0,0,0,0,0,0,0,0,0,0,0,0,0,0,0,0,0,0,0,0,0,0,0,0,0,0,0,0,0,0,0,0,0,0,0,0,-3.6348,-3.6349,0,-3.6438,-3.6439,-3.644,-3.6396,-3.6393,-3.6391,-3.6389,-3.6478,-3.6482,-3.6487,0,0,0,0,0,0,0,0,0,0,0,0,0,-3.6133,-3.6137,-3.6347,-3.6349,-3.635,-3.6438,-3.6439,-3.644,-3.6396,-3.6393,-3.639,-3.6388,-3.6477,-3.6482,-3.6487,0,0,0,0,0,0,0,0,0,0,0,0,0,-3.6225,-3.6138,-3.6347,-3.6338,-3.6339,-3.6438,-3.6439,-3.6441,-3.6397,-3.6393,-3.639,-3.6386,-3.6475,-3.6481,-3.6488,-3.66,0,0,-3.6509,-3.6512,0,0,0,0,0,0,0,0,-3.622,-3.6233,-3.6339,-3.6339,-3.634,-3.6402,-3.6396,-3.6494,-3.6398,-3.6375,-3.6389,-3.6385,-3.6455,-3.6464,-3.6488,-3.6604,-3.6608,-3.651,-3.6514,-3.6517,-3.6519,0,0,0,0,0,0,0,-3.6213,-3.6229,-3.6383,-3.634,-3.6341,-3.6329,-3.6338,-3.6414,-3.6433,-3.6376,-3.6373,-3.6385,-3.6455,-3.6482,-3.649,-3.6609,-3.6509,-3.6515,-3.652,-3.6522,-3.6821,-3.6825,0,0,0,0,0,0,-3.6208,-3.6224,-3.638,-3.6386,-3.627,-3.6335,-3.6346,-3.6385,-3.6432,-3.6436,-3.6388,-3.6382,-3.6472,-3.6482,-3.6493,-3.6627,-3.6517,-3.6523,-3.6527,-3.6817,-3.6822,-3.6826,0,0,0,0,0,0,-3.6203,-3.6222,-3.6377,-3.6304,-3.6323,-3.6343,-3.6388,-3.6389,-3.6416,-3.6441,-3.6444,-3.6412,-3.6469,-3.6483,-3.6574,-3.6629,-3.6526,-3.6532,-3.6813,-3.6819,-3.6824,-3.6896,0,0,0,0,0,0,-3.6198,-3.6221,-3.6265,-3.6305,-3.6327,-3.6458,-3.6391,-3.6393,-3.6428,-3.6422,-3.6464,-3.6468,-3.6468,-3.6564,-3.6581,-3.6637,-3.6538,-3.6808,-3.6815,-3.6822,-3.6889,-3.6903,-3.6916,0,0,0,0,0,-3.619,-3.6281,-3.6267,-3.6286,-3.6382,-3.6461,-3.6473,-3.6472,-3.6433,-3.6476,-3.6492,-3.6467,-3.662,-3.6574,-3.6592,-3.6651,-3.6804,-3.6813,-3.6821,-3.6883,-3.6901,-3.6916,0,0,0,0,0,0,-3.6245,-3.6286,-3.6271,-3.6378,-3.6417,-3.6453,-3.6508,-3.6491,-3.654,-3.6532,-3.6528,-3.6537,-3.6632,-3.665,-3.6597,-3.6761,-3.6706,-3.6719,-3.6746,-3.6764,-3.6777,-3.6771,-3.6543,0,0,0,0,0,-3.627,-3.6332,-3.6363,-3.6454,-3.6475,-3.6488,-3.6522,-3.6518,-3.6557,-3.6573,-3.6596,-3.6633,-3.669,-3.6728,-3.6781,-3.6891,-3.6899,-3.694,-3.6954,-3.6965,-3.6976,-3.7035,-3.7054,-3.6854,-3.6854,-3.6854,0,0,-3.6321,-3.6351,-3.639,-3.6466,-3.6496,-3.6559,-3.6502,-3.6571,-3.6618,-3.6583,-3.6671,-3.6688,-3.673,-3.6831,-3.6876,-3.6849,-3.7033,-3.6976,-3.6985,-3.699,-3.7046,-3.7065,-3.7082,-3.686,-3.6859,-3.6858,0,0,-3.6447,-3.6476,-3.6556,-3.6586,-3.6631,-3.664,-3.6659,-3.6698,-3.6709,-3.6797,-3.6772,-3.6826,-3.6924,-3.6955,-3.6984,-3.7121,-3.7099,-3.7138,-3.721,-3.7268,-3.7283,-3.7297,-3.7346,-3.7364,-3.7149,-3.7149,-3.7149,0,-3.6505,-3.6601,-3.6598,-3.667,-3.6703,-3.6676,-3.6755,-3.6784,-3.6845,-3.6868,-3.6837,-3.6959,-3.6985,-3.7093,-3.7126,-3.715,-3.7171,-3.7134,-3.7281,-3.7295,-3.7308,-3.7355,-3.7373,-3.7154,-3.7153,-3.7153,-3.7152,0,-3.667,-3.6736,-3.6794,-3.6854,-3.6894,-3.6969,-3.6977,-3.7018,-3.701,-3.7021,-3.711,-3.714,-3.72,-3.7224,-3.7217,-3.7331,-3.7313,-3.7282,-3.7226,-3.7332,-3.7376,-3.7393,-3.716,-3.7159,-3.7157,-3.7156,0,0,-3.6834,-3.6891,-3.6913,-3.694,-3.6987,-3.7038,-3.7111,-3.717,-3.7205,-3.7247,-3.7307,-3.7391,-3.7362,-3.7395,-3.739,-3.744,-3.7547,-3.7403,-3.7404,-3.7429,-3.7674,-3.7698,-3.7718,-3.7532,-3.7536,-3.7539,-3.7671,0,-3.6964,-3.7094,-3.7093,-3.7212,-3.7273,-3.7247,-3.7311,-3.7346,-3.7358,-3.7411,-3.7423,-3.7483,-3.7441,-3.746,-3.7509,-3.7524,-3.7596,-3.7514,-3.7588,-3.7591,-3.758,-3.7741,-3.7766,-3.789,-3.7688,-3.7691,-3.7693,0,-3.7133,-3.7182,-3.7308,-3.7346,-3.7371,-3.7429,-3.7483,-3.7533,-3.7572,-3.7577,-3.7614,-3.7601,-3.7674,-3.7616,-3.7716,-3.766,-3.769,-3.7702,-3.7706,-3.7714,-3.7649,-3.7753,-3.7929,-3.7948,-3.7719,-3.7717,-3.7715,0,-3.7241,-3.7337,-3.7425,-3.7449,-3.7496,-3.7537,-3.7558,-3.7594,-3.7629,-3.7675,-3.7698,-3.7752,-3.7781,-3.7822,-3.7824,-3.7782,-3.7925,-3.7867,-3.7931,-3.7931,-3.7963,-3.7961,-3.8147,-3.7982,-3.7981,-3.7981,-3.798,0,-3.7386,-3.7464,-3.7474,-3.7528,-3.7615,-3.7612,-3.7697,-3.7714,-3.7746,-3.7802,-3.7782,-3.7835,-3.7834,-3.7887,-3.7889,-3.7971,-3.7984,-3.799,-3.799,-3.7992,-3.7992,-3.8012,-3.8004,-3.7986,-3.7985,-3.7984,-3.7983,0,-3.7521,-3.7531,-3.7625,-3.7662,-3.7673,-3.7735,-3.7766,-3.7817,-3.7827,-3.7898,-3.7914,-3.793,-3.7992,-3.7997,-3.8068,-3.8069,-3.8169,-3.8159,-3.8157,-3.8155,-3.8219,-3.8213,-3.8425,-3.8452,-3.8269,-3.827,-3.8272,0,-3.7614,-3.7674,-3.7717,-3.7754,-3.7778,-3.7837,-3.7873,-3.7873,-3.7911,-3.7959,-3.8004,-3.8064,-3.8112,-3.8211,-3.8228,-3.8282,-3.8273,-3.8344,-3.8281,-3.8282,-3.8275,-3.8272,-3.8277,-3.8356,-3.8358,-3.836,-3.8361,0,-3.7777,-3.7779,-3.7833,-3.7889,-3.7933,-3.7976,-3.8016,-3.8047,-3.8051,-3.8095,-3.8159,-3.8196,-3.8269,-3.8328,-3.8381,-3.8401,-3.8382,-3.838,-3.8398,-3.8402,-3.8398,-3.8402,-3.819,-3.8376,-3.8374,-3.8373,-3.8372,-3.8372,-3.7894,-3.7946,-3.7985,-3.8045,-3.8076,-3.8114,-3.8164,-3.818,-3.8234,-3.8294,-3.829,-3.836,-3.8396,-3.8465,-3.8489,-3.8543,-3.8519,-3.8545,-3.8551,-3.8558,-3.8565,-3.8389,-3.8552,-3.8552,-3.8552,-3.8551,-3.8551,0,-3.8057,-3.8081,-3.8136,-3.8194,-3.8241,-3.822,-3.8263,-3.8304,-3.8366,-3.8402,-3.845,-3.8522,-3.858,-3.8601,-3.8656,-3.8695,-3.8688,-3.871,-3.8707,-3.8712,-3.8583,-3.8562,-3.8715,-3.8715,-3.8715,-3.8715,-3.8715,-3.8715,-3.8148,-3.8234,-3.8241,-3.8342,-3.8364,-3.8434,-3.846,-3.8495,-3.8524,-3.8606,-3.8654,-3.8668,-3.8698,-3.8755,-3.8806,-3.8811,-3.8832,-3.8858,-3.8859,-3.8738,-3.8721,-3.8706,-3.8686,-3.8863,-3.8863,-3.8984,-3.8986,-3.8986]}]]